sat.trackr.live / text

‹ back to catalog

STARLINK-35486

NORAD 66253 · 2025-245V

PAYLOAD ACTIVE UNKNOWN

§ Identity

Operator
Country
US
Launch date
2025-10-29
Launch site
AFETR
Launch vehicle
Mass (kg)
RCS (m²)

Purposes: comms

External: N2YO · Heavens-Above · Gunter

§ Orbital elements

Epoch: 2026-09-20T23:02:16.376928Z

Period
94.01 min
Inclination
53.1562°
Eccentricity
0.0001140
Mean motion
15.31704252 rev/d
Perigee alt
469.9 km
Apogee alt
471.5 km
Semi-major
6,848.9 km
B*
3.6303e-4
RAAN
95.4340°
Arg perigee
92.6050°
Mean anomaly
267.5082°
Rev number
5,096

§ Raw data

STARLINK-354861 66253U 25245V   26263.95991177  .00010918  00000+0  36303-3 0  99932 66253  53.1562  95.4340 0001140  92.6050 267.5082 15.31704252 50969

JSON: /api/v1/satellites/66253 · /tle

For live sub-satellite position, see the globe view (requires WebGL).

§ Visibility from observer

Set your observer location to see the next 7 days of passes ≥ 10°. The values pass through the URL so the page stays shareable.

No JS? Fill the form by hand. The geolocation button needs JavaScript.